Starlink 31640

operational
NORAD ID: 59748 Int'l Des: 2024-090 Owner: SPXS Country: US Constellation: starlink
LEOCIRCULAR

关于 Starlink 31640

正在加载描述...

实时位置

正在加载3D地球...

即将过境

高度历史

Altitude vs Time

uPlot chart will show altitude changes over time

两行轨道根数

1 59748U 24090U 25258.80749560 .00001137 00000-0 50822-4 0 9992
2 59748 43.0024 91.1744 0001675 259.7523 100.3140 15.27585449 76693
Epoch: Sep 15, 2025 • Age: 20 hours

当前状态

高度 482.4 km
速度 7.63 km/s
星下点 13.83°N, 31.96°E
发射日期 May 13, 2024
运行时间 1.3 years
类型 internet

技术详情

分类 Payload
质量 730.00 kg
干质量 700.00 kg
总质量 730.00 kg
长度 0.30 m
直径 4.10 m
跨度 29.00 m
形状 Box + pan
制造商 SPXS
平台类型 Starlink V2M
阶段状态 In Orbit
所有者/国家 SPXS/US

大型星座

Loading constellations...